contact:dominique.lefevre@mio.osupytheas.fr, maurice.libes@osupytheas.fr, didier.mallarino@osupytheas.fr
Project:EMSO http://www.emso-fr.org/EMSO-France
Depth: 2436.0 m
Title:EMSO Ligure Ouest : Data MII capteur MICROCAT
DateTime_Computer,Latitude,Longitude,Temperature,Conductivity,Pressure,DateTime_Instrument
DateTime_Computer,Latitude,Longitude,degC,S m-1,dbar,DateTime_Instrument
2021-12-25T00:01:04Z,42.805,6.029,13.3074,4.60074,2470.366,2021-12-25T02:02:33Z
2021-12-25T00:04:07Z,42.805,6.029,13.3062,4.60072,2470.366,2021-12-25T02:05:36Z
2021-12-25T00:07:10Z,42.805,6.029,13.3056,4.60076,2470.366,2021-12-25T02:08:39Z
2021-12-25T00:10:13Z,42.805,6.029,13.3029,4.60061,2470.38,2021-12-25T02:11:43Z
2021-12-25T00:13:16Z,42.805,6.029,13.3024,4.60049,2470.38,2021-12-25T02:14:46Z
2021-12-25T00:16:20Z,42.805,6.029,13.3028,4.60064,2470.38,2021-12-25T02:17:49Z
2021-12-25T00:19:23Z,42.805,6.029,13.3024,4.60069,2470.306,2021-12-25T02:20:52Z
2021-12-25T00:22:26Z,42.805,6.029,13.3021,4.60070,2470.38,2021-12-25T02:23:55Z
2021-12-25T00:25:29Z,42.805,6.029,13.3041,4.60061,2470.343,2021-12-25T02:26:58Z
2021-12-25T00:28:32Z,42.805,6.029,13.3026,4.60081,2470.343,2021-12-25T02:30:01Z
2021-12-25T00:31:35Z,42.805,6.029,13.3046,4.60069,2470.38,2021-12-25T02:33:04Z
2021-12-25T00:34:38Z,42.805,6.029,13.3038,4.60052,2470.371,2021-12-25T02:36:08Z
2021-12-25T00:37:41Z,42.805,6.029,13.3043,4.60079,2470.357,2021-12-25T02:39:11Z
2021-12-25T00:40:45Z,42.805,6.029,13.3021,4.60046,2470.334,2021-12-25T02:42:14Z
2021-12-25T00:43:48Z,42.805,6.029,13.3029,4.60061,2470.334,2021-12-25T02:45:17Z
2021-12-25T00:46:51Z,42.805,6.029,13.3070,4.60101,2470.357,2021-12-25T02:48:20Z
2021-12-25T00:49:54Z,42.805,6.029,13.3049,4.60069,2470.38,2021-12-25T02:51:23Z
2021-12-25T00:52:57Z,42.805,6.029,13.3035,4.60069,2470.343,2021-12-25T02:54:26Z
2021-12-25T00:56:00Z,42.805,6.029,13.3031,4.60051,2470.334,2021-12-25T02:57:29Z
2021-12-25T00:59:03Z,42.805,6.029,13.3014,4.60075,2470.334,2021-12-25T03:00:33Z
2021-12-25T01:02:06Z,42.805,6.029,13.3010,4.60049,2470.343,2021-12-25T03:03:36Z
2021-12-25T01:05:09Z,42.805,6.029,13.3018,4.60052,2470.366,2021-12-25T03:06:39Z
2021-12-25T01:08:13Z,42.805,6.029,13.3015,4.60064,2470.343,2021-12-25T03:09:42Z
2021-12-25T01:11:16Z,42.805,6.029,13.3017,4.60087,2470.32,2021-12-25T03:12:45Z
2021-12-25T01:14:19Z,42.805,6.029,13.3046,4.60078,2470.32,2021-12-25T03:15:48Z
2021-12-25T01:17:22Z,42.805,6.029,13.3048,4.60042,2470.32,2021-12-25T03:18:51Z
2021-12-25T01:20:25Z,42.805,6.029,13.3046,4.60070,2470.32,2021-12-25T03:21:54Z
2021-12-25T01:23:28Z,42.805,6.029,13.3046,4.60072,2470.343,2021-12-25T03:24:58Z
2021-12-25T01:26:31Z,42.805,6.029,13.3051,4.60107,2470.32,2021-12-25T03:28:01Z
2021-12-25T01:29:34Z,42.805,6.029,13.3054,4.60057,2470.31,2021-12-25T03:31:04Z
2021-12-25T01:32:38Z,42.805,6.029,13.3059,4.60073,2470.32,2021-12-25T03:34:07Z
2021-12-25T01:35:41Z,42.805,6.029,13.3061,4.60061,2470.334,2021-12-25T03:37:10Z
2021-12-25T01:38:44Z,42.805,6.029,13.3045,4.60077,2470.297,2021-12-25T03:40:13Z
2021-12-25T01:41:47Z,42.805,6.029,13.3056,4.60099,2470.32,2021-12-25T03:43:16Z
2021-12-25T01:44:50Z,42.805,6.029,13.3062,4.60075,2470.334,2021-12-25T03:46:19Z
2021-12-25T01:47:53Z,42.805,6.029,13.3080,4.60084,2470.32,2021-12-25T03:49:23Z
2021-12-25T01:50:56Z,42.805,6.029,13.3025,4.60092,2470.334,2021-12-25T03:52:26Z
2021-12-25T01:53:59Z,42.805,6.029,13.3051,4.60103,2470.32,2021-12-25T03:55:29Z
2021-12-25T01:57:03Z,42.805,6.029,13.3073,4.60170,2470.287,2021-12-25T03:58:32Z
2021-12-25T02:00:06Z,42.805,6.029,13.3076,4.60072,2470.31,2021-12-25T04:01:35Z
2021-12-25T02:03:09Z,42.805,6.029,13.3039,4.60122,2470.31,2021-12-25T04:04:38Z
2021-12-25T02:06:12Z,42.805,6.029,13.3069,4.60073,2470.287,2021-12-25T04:07:41Z
2021-12-25T02:09:15Z,42.805,6.029,13.3065,4.60115,2470.25,2021-12-25T04:10:44Z
2021-12-25T02:12:18Z,42.805,6.029,13.3082,4.60099,2470.31,2021-12-25T04:13:48Z
2021-12-25T02:15:21Z,42.805,6.029,13.3078,4.60093,2470.297,2021-12-25T04:16:51Z
2021-12-25T02:18:25Z,42.805,6.029,13.3092,4.60089,2470.297,2021-12-25T04:19:54Z
2021-12-25T02:21:28Z,42.805,6.029,13.3089,4.60076,2470.31,2021-12-25T04:22:57Z
2021-12-25T02:24:31Z,42.805,6.029,13.3061,4.60068,2470.273,2021-12-25T04:26:00Z
2021-12-25T02:27:34Z,42.805,6.029,13.3073,4.60109,2470.273,2021-12-25T04:29:03Z
2021-12-25T02:30:37Z,42.805,6.029,13.3046,4.60087,2470.273,2021-12-25T04:32:06Z
2021-12-25T02:33:40Z,42.805,6.029,13.3060,4.60092,2470.31,2021-12-25T04:35:09Z
2021-12-25T02:36:43Z,42.805,6.029,13.3067,4.60074,2470.297,2021-12-25T04:38:13Z
2021-12-25T02:39:46Z,42.805,6.029,13.3073,4.60085,2470.273,2021-12-25T04:41:16Z
2021-12-25T02:42:49Z,42.805,6.029,13.3056,4.60121,2470.273,2021-12-25T04:44:19Z
2021-12-25T02:45:53Z,42.805,6.029,13.3073,4.60092,2470.297,2021-12-25T04:47:22Z
2021-12-25T02:48:56Z,42.805,6.029,13.3017,4.60102,2470.273,2021-12-25T04:50:25Z
2021-12-25T02:51:59Z,42.805,6.029,13.3048,4.60092,2470.31,2021-12-25T04:53:28Z
2021-12-25T02:55:02Z,42.805,6.029,13.3065,4.60108,2470.31,2021-12-25T04:56:31Z
2021-12-25T02:58:05Z,42.805,6.029,13.3054,4.60082,2470.31,2021-12-25T04:59:34Z
2021-12-25T03:01:08Z,42.805,6.029,13.3059,4.60094,2470.297,2021-12-25T05:02:38Z
2021-12-25T03:04:11Z,42.805,6.029,13.3071,4.60081,2470.287,2021-12-25T05:05:41Z
2021-12-25T03:07:14Z,42.805,6.029,13.3054,4.60092,2470.287,2021-12-25T05:08:44Z
2021-12-25T03:10:18Z,42.805,6.029,13.3078,4.60192,2470.297,2021-12-25T05:11:47Z
2021-12-25T03:13:21Z,42.805,6.029,13.3080,4.60170,2470.287,2021-12-25T05:14:50Z
2021-12-25T03:16:24Z,42.805,6.029,13.3088,4.60117,2470.273,2021-12-25T05:17:53Z
2021-12-25T03:19:27Z,42.805,6.029,13.3041,4.60099,2470.273,2021-12-25T05:20:56Z
2021-12-25T03:22:30Z,42.805,6.029,13.3069,4.60152,2470.264,2021-12-25T05:23:59Z
2021-12-25T03:25:33Z,42.805,6.029,13.3027,4.60136,2470.273,2021-12-25T05:27:03Z
2021-12-25T03:28:36Z,42.805,6.029,13.3015,4.60115,2470.297,2021-12-25T05:30:06Z
2021-12-25T03:31:39Z,42.805,6.029,13.3056,4.60098,2470.287,2021-12-25T05:33:09Z
2021-12-25T03:34:43Z,42.805,6.029,13.3062,4.60073,2470.297,2021-12-25T05:36:12Z
2021-12-25T03:37:46Z,42.805,6.029,13.3046,4.60059,2470.264,2021-12-25T05:39:15Z
2021-12-25T03:40:49Z,42.805,6.029,13.3053,4.60062,2470.287,2021-12-25T05:42:18Z
2021-12-25T03:43:52Z,42.805,6.029,13.3031,4.60125,2470.25,2021-12-25T05:45:21Z
2021-12-25T03:46:55Z,42.805,6.029,13.3048,4.60114,2470.273,2021-12-25T05:48:24Z
2021-12-25T03:49:58Z,42.805,6.029,13.3049,4.60122,2470.287,2021-12-25T05:51:28Z
2021-12-25T03:53:01Z,42.805,6.029,13.3043,4.60092,2470.287,2021-12-25T05:54:31Z
2021-12-25T03:56:04Z,42.805,6.029,13.3069,4.60099,2470.25,2021-12-25T05:57:34Z
2021-12-25T03:59:08Z,42.805,6.029,13.3063,4.60121,2470.287,2021-12-25T06:00:37Z
2021-12-25T04:02:11Z,42.805,6.029,13.3019,4.60125,2470.25,2021-12-25T06:03:40Z
2021-12-25T04:05:14Z,42.805,6.029,13.3034,4.60103,2470.273,2021-12-25T06:06:43Z
2021-12-25T04:08:17Z,42.805,6.029,13.3056,4.60171,2470.264,2021-12-25T06:09:46Z
2021-12-25T04:11:20Z,42.805,6.029,13.3053,4.60089,2470.25,2021-12-25T06:12:49Z
2021-12-25T04:14:23Z,42.805,6.029,13.3056,4.60119,2470.25,2021-12-25T06:15:52Z
2021-12-25T04:17:26Z,42.805,6.029,13.3061,4.60060,2470.31,2021-12-25T06:18:56Z
2021-12-25T04:20:29Z,42.805,6.029,13.3058,4.60059,2470.31,2021-12-25T06:21:59Z
2021-12-25T04:23:33Z,42.805,6.029,13.3051,4.60114,2470.264,2021-12-25T06:25:02Z
2021-12-25T04:26:36Z,42.805,6.029,13.3041,4.60097,2470.273,2021-12-25T06:28:05Z
2021-12-25T04:29:39Z,42.805,6.029,13.3060,4.60138,2470.254,2021-12-25T06:31:08Z
2021-12-25T04:32:42Z,42.805,6.029,13.3066,4.60108,2470.287,2021-12-25T06:34:11Z
2021-12-25T04:35:45Z,42.805,6.029,13.3063,4.60094,2470.227,2021-12-25T06:37:14Z
2021-12-25T04:38:48Z,42.805,6.029,13.3054,4.60128,2470.273,2021-12-25T06:40:17Z
2021-12-25T04:41:51Z,42.805,6.029,13.3059,4.60081,2470.287,2021-12-25T06:43:21Z
2021-12-25T04:44:54Z,42.805,6.029,13.3052,4.60064,2470.273,2021-12-25T06:46:24Z
2021-12-25T04:47:58Z,42.805,6.029,13.3046,4.60079,2470.264,2021-12-25T06:49:27Z
2021-12-25T04:51:01Z,42.805,6.029,13.3041,4.60107,2470.287,2021-12-25T06:52:30Z
2021-12-25T04:54:04Z,42.805,6.029,13.3022,4.60067,2470.25,2021-12-25T06:55:33Z
2021-12-25T04:57:07Z,42.805,6.029,13.3025,4.60087,2470.287,2021-12-25T06:58:36Z
2021-12-25T05:00:10Z,42.805,6.029,13.3011,4.60125,2470.25,2021-12-25T07:01:39Z
2021-12-25T05:03:13Z,42.805,6.029,13.3036,4.60127,2470.287,2021-12-25T07:04:42Z
2021-12-25T05:06:16Z,42.805,6.029,13.3049,4.60188,2470.287,2021-12-25T07:07:46Z
2021-12-25T05:09:19Z,42.805,6.029,13.3046,4.60103,2470.287,2021-12-25T07:10:49Z
2021-12-25T05:12:23Z,42.805,6.029,13.3057,4.60107,2470.264,2021-12-25T07:13:52Z
2021-12-25T05:15:26Z,42.805,6.029,13.3054,4.60082,2470.273,2021-12-25T07:16:55Z
2021-12-25T05:18:29Z,42.805,6.029,13.3036,4.60087,2470.25,2021-12-25T07:19:58Z
2021-12-25T05:21:32Z,42.805,6.029,13.3051,4.60092,2470.264,2021-12-25T07:23:01Z
2021-12-25T05:24:35Z,42.805,6.029,13.3047,4.60099,2470.273,2021-12-25T07:26:04Z
2021-12-25T05:27:38Z,42.805,6.029,13.3054,4.60092,2470.31,2021-12-25T07:29:07Z
2021-12-25T05:30:41Z,42.805,6.029,13.3047,4.60098,2470.273,2021-12-25T07:32:11Z
2021-12-25T05:33:44Z,42.805,6.029,13.3053,4.60116,2470.273,2021-12-25T07:35:14Z
2021-12-25T05:36:48Z,42.805,6.029,13.3063,4.60125,2470.273,2021-12-25T07:38:17Z
2021-12-25T05:39:51Z,42.805,6.029,13.3070,4.60102,2470.264,2021-12-25T07:41:20Z
2021-12-25T05:42:54Z,42.805,6.029,13.3077,4.60111,2470.25,2021-12-25T07:44:23Z
2021-12-25T05:45:57Z,42.805,6.029,13.3053,4.60113,2470.273,2021-12-25T07:47:26Z
2021-12-25T05:49:00Z,42.805,6.029,13.3058,4.60080,2470.297,2021-12-25T07:50:29Z
2021-12-25T05:52:03Z,42.805,6.029,13.3061,4.60090,2470.287,2021-12-25T07:53:32Z
2021-12-25T05:55:06Z,42.805,6.029,13.3024,4.60150,2470.273,2021-12-25T07:56:36Z
2021-12-25T05:58:09Z,42.805,6.029,13.3061,4.60107,2470.273,2021-12-25T07:59:39Z
2021-12-25T06:01:12Z,42.805,6.029,13.3053,4.60112,2470.287,2021-12-25T08:02:42Z
2021-12-25T06:04:16Z,42.805,6.029,13.3059,4.60115,2470.297,2021-12-25T08:05:45Z
2021-12-25T06:07:19Z,42.805,6.029,13.3071,4.60126,2470.273,2021-12-25T08:08:48Z
2021-12-25T06:10:22Z,42.805,6.029,13.3041,4.60125,2470.31,2021-12-25T08:11:51Z
2021-12-25T06:13:25Z,42.805,6.029,13.3048,4.60100,2470.25,2021-12-25T08:14:54Z
2021-12-25T06:16:28Z,42.805,6.029,13.3044,4.60105,2470.31,2021-12-25T08:17:57Z
2021-12-25T06:19:31Z,42.805,6.029,13.3024,4.60094,2470.287,2021-12-25T08:21:01Z
2021-12-25T06:22:34Z,42.805,6.029,13.3037,4.60140,2470.287,2021-12-25T08:24:04Z
2021-12-25T06:25:37Z,42.805,6.029,13.3031,4.60117,2470.297,2021-12-25T08:27:07Z
2021-12-25T06:28:41Z,42.805,6.029,13.3036,4.60103,2470.31,2021-12-25T08:30:10Z
2021-12-25T06:31:44Z,42.805,6.029,13.3048,4.60109,2470.273,2021-12-25T08:33:13Z
2021-12-25T06:34:47Z,42.805,6.029,13.3054,4.60103,2470.287,2021-12-25T08:36:16Z
2021-12-25T06:37:50Z,42.805,6.029,13.3025,4.60122,2470.32,2021-12-25T08:39:19Z
2021-12-25T06:40:53Z,42.805,6.029,13.3032,4.60091,2470.31,2021-12-25T08:42:22Z
2021-12-25T06:43:56Z,42.805,6.029,13.3041,4.60062,2470.31,2021-12-25T08:45:26Z
2021-12-25T06:46:59Z,42.805,6.029,13.3051,4.60059,2470.297,2021-12-25T08:48:29Z
2021-12-25T06:50:02Z,42.805,6.029,13.3014,4.60054,2470.25,2021-12-25T08:51:32Z
2021-12-25T06:53:06Z,42.805,6.029,13.3042,4.60089,2470.31,2021-12-25T08:54:35Z
2021-12-25T06:56:09Z,42.805,6.029,13.3048,4.60122,2470.297,2021-12-25T08:57:38Z
2021-12-25T06:59:12Z,42.805,6.029,13.3037,4.60083,2470.287,2021-12-25T09:00:41Z
2021-12-25T07:02:15Z,42.805,6.029,13.3036,4.60111,2470.25,2021-12-25T09:03:44Z
2021-12-25T07:05:18Z,42.805,6.029,13.3049,4.60106,2470.297,2021-12-25T09:06:47Z
2021-12-25T07:08:21Z,42.805,6.029,13.3036,4.60126,2470.334,2021-12-25T09:09:51Z
2021-12-25T07:11:24Z,42.805,6.029,13.3032,4.60088,2470.31,2021-12-25T09:12:54Z
2021-12-25T07:14:27Z,42.805,6.029,13.3051,4.60089,2470.334,2021-12-25T09:15:57Z
2021-12-25T07:17:31Z,42.805,6.029,13.3070,4.60059,2470.297,2021-12-25T09:19:00Z
2021-12-25T07:20:34Z,42.805,6.029,13.3036,4.60116,2470.334,2021-12-25T09:22:03Z
2021-12-25T07:23:37Z,42.805,6.029,13.3062,4.60119,2470.273,2021-12-25T09:25:06Z
2021-12-25T07:26:40Z,42.805,6.029,13.3041,4.60097,2470.357,2021-12-25T09:28:09Z
2021-12-25T07:29:43Z,42.805,6.029,13.3032,4.60067,2470.32,2021-12-25T09:31:12Z
2021-12-25T07:32:46Z,42.805,6.029,13.3029,4.60051,2470.334,2021-12-25T09:34:16Z
2021-12-25T07:35:49Z,42.805,6.029,13.3011,4.60057,2470.343,2021-12-25T09:37:19Z
2021-12-25T07:38:52Z,42.805,6.029,13.3018,4.60049,2470.32,2021-12-25T09:40:22Z
2021-12-25T07:41:56Z,42.805,6.029,13.3026,4.60051,2470.334,2021-12-25T09:43:25Z
2021-12-25T07:44:59Z,42.805,6.029,13.3030,4.60063,2470.32,2021-12-25T09:46:28Z
2021-12-25T07:48:02Z,42.805,6.029,13.3031,4.60093,2470.366,2021-12-25T09:49:31Z
2021-12-25T07:51:05Z,42.805,6.029,13.3041,4.60094,2470.343,2021-12-25T09:52:34Z
2021-12-25T07:54:08Z,42.805,6.029,13.3050,4.60085,2470.32,2021-12-25T09:55:37Z
2021-12-25T07:57:11Z,42.805,6.029,13.3048,4.60077,2470.38,2021-12-25T09:58:41Z
2021-12-25T08:00:14Z,42.805,6.029,13.3052,4.60056,2470.357,2021-12-25T10:01:44Z
2021-12-25T08:03:17Z,42.805,6.029,13.3036,4.60054,2470.353,2021-12-25T10:04:47Z
2021-12-25T08:06:21Z,42.805,6.029,13.3046,4.60061,2470.357,2021-12-25T10:07:50Z
2021-12-25T08:09:24Z,42.805,6.029,13.3042,4.60062,2470.38,2021-12-25T10:10:53Z
2021-12-25T08:12:27Z,42.805,6.029,13.3019,4.60067,2470.39,2021-12-25T10:13:56Z
2021-12-25T08:15:30Z,42.805,6.029,13.3026,4.60063,2470.343,2021-12-25T10:16:59Z
2021-12-25T08:18:33Z,42.805,6.029,13.3053,4.60031,2470.366,2021-12-25T10:20:02Z
2021-12-25T08:21:36Z,42.805,6.029,13.3018,4.60058,2470.343,2021-12-25T10:23:06Z
2021-12-25T08:24:39Z,42.805,6.029,13.3016,4.60082,2470.39,2021-12-25T10:26:09Z
2021-12-25T08:27:42Z,42.805,6.029,13.3036,4.60099,2470.366,2021-12-25T10:29:12Z
2021-12-25T08:30:46Z,42.805,6.029,13.3036,4.60103,2470.404,2021-12-25T10:32:15Z
2021-12-25T08:33:49Z,42.805,6.029,13.3033,4.60054,2470.39,2021-12-25T10:35:18Z
2021-12-25T08:36:52Z,42.805,6.029,13.3031,4.60049,2470.38,2021-12-25T10:38:21Z
2021-12-25T08:39:55Z,42.805,6.029,13.3029,4.60072,2470.404,2021-12-25T10:41:24Z
2021-12-25T08:42:58Z,42.805,6.029,13.3043,4.60072,2470.39,2021-12-25T10:44:27Z
2021-12-25T08:46:01Z,42.805,6.029,13.3041,4.60051,2470.39,2021-12-25T10:47:31Z
2021-12-25T08:49:04Z,42.805,6.029,13.3034,4.60066,2470.39,2021-12-25T10:50:34Z
2021-12-25T08:52:07Z,42.805,6.029,13.3034,4.60034,2470.427,2021-12-25T10:53:37Z
2021-12-25T08:55:11Z,42.805,6.029,13.3024,4.60047,2470.413,2021-12-25T10:56:40Z
2021-12-25T08:58:14Z,42.805,6.029,13.3028,4.60058,2470.39,2021-12-25T10:59:43Z
2021-12-25T09:01:17Z,42.805,6.029,13.3009,4.60049,2470.413,2021-12-25T11:02:46Z
2021-12-25T09:04:20Z,42.805,6.029,13.3011,4.60062,2470.413,2021-12-25T11:05:49Z
2021-12-25T09:07:23Z,42.805,6.029,13.3008,4.60052,2470.404,2021-12-25T11:08:52Z
2021-12-25T09:10:26Z,42.805,6.029,13.3009,4.60046,2470.437,2021-12-25T11:11:56Z
2021-12-25T09:13:29Z,42.805,6.029,13.3022,4.60052,2470.404,2021-12-25T11:14:59Z
2021-12-25T09:16:33Z,42.805,6.029,13.3013,4.60058,2470.437,2021-12-25T11:18:02Z
2021-12-25T09:19:36Z,42.805,6.029,13.3027,4.60046,2470.413,2021-12-25T11:21:05Z
2021-12-25T09:22:39Z,42.805,6.029,13.3023,4.60049,2470.427,2021-12-25T11:24:08Z
2021-12-25T09:25:42Z,42.805,6.029,13.3011,4.60041,2470.413,2021-12-25T11:27:11Z
2021-12-25T09:28:45Z,42.805,6.029,13.3010,4.60039,2470.437,2021-12-25T11:30:14Z
2021-12-25T09:31:48Z,42.805,6.029,13.3036,4.60044,2470.437,2021-12-25T11:33:17Z
2021-12-25T09:34:51Z,42.805,6.029,13.3011,4.60055,2470.427,2021-12-25T11:36:21Z
2021-12-25T09:37:54Z,42.805,6.029,13.3015,4.60040,2470.45,2021-12-25T11:39:24Z
2021-12-25T09:40:58Z,42.805,6.029,13.3008,4.60042,2470.46,2021-12-25T11:42:27Z
2021-12-25T09:44:01Z,42.805,6.029,13.3012,4.60058,2470.413,2021-12-25T11:45:30Z
2021-12-25T09:47:04Z,42.805,6.029,13.3021,4.60051,2470.437,2021-12-25T11:48:33Z
2021-12-25T09:50:07Z,42.805,6.029,13.3019,4.60061,2470.46,2021-12-25T11:51:36Z
2021-12-25T09:53:10Z,42.805,6.029,13.3026,4.60062,2470.437,2021-12-25T11:54:39Z
2021-12-25T09:56:13Z,42.805,6.029,13.3012,4.60039,2470.437,2021-12-25T11:57:43Z
2021-12-25T09:59:16Z,42.805,6.029,13.3018,4.60047,2470.483,2021-12-25T12:00:46Z
2021-12-25T10:02:19Z,42.805,6.029,13.3019,4.60046,2470.437,2021-12-25T12:03:49Z
2021-12-25T10:05:23Z,42.805,6.029,13.3018,4.60054,2470.437,2021-12-25T12:06:52Z
2021-12-25T10:08:26Z,42.805,6.029,13.3015,4.60036,2470.437,2021-12-25T12:09:55Z
2021-12-25T10:11:29Z,42.805,6.029,13.3014,4.60033,2470.474,2021-12-25T12:12:58Z
2021-12-25T10:14:32Z,42.805,6.029,13.3009,4.60051,2470.45,2021-12-25T12:16:01Z
2021-12-25T10:17:35Z,42.805,6.029,13.3018,4.60039,2470.483,2021-12-25T12:19:04Z
2021-12-25T10:20:38Z,42.805,6.029,13.3028,4.60044,2470.437,2021-12-25T12:22:08Z
2021-12-25T10:23:41Z,42.805,6.029,13.3022,4.60053,2470.46,2021-12-25T12:25:11Z
2021-12-25T10:26:44Z,42.805,6.029,13.3039,4.60029,2470.474,2021-12-25T12:28:14Z
2021-12-25T10:29:48Z,42.805,6.029,13.3020,4.60055,2470.483,2021-12-25T12:31:17Z
2021-12-25T10:32:51Z,42.805,6.029,13.3011,4.60046,2470.46,2021-12-25T12:34:20Z
2021-12-25T10:35:54Z,42.805,6.029,13.3038,4.60038,2470.46,2021-12-25T12:37:23Z
2021-12-25T10:38:57Z,42.805,6.029,13.3013,4.60051,2470.46,2021-12-25T12:40:26Z
2021-12-25T10:42:00Z,42.805,6.029,13.3013,4.60053,2470.483,2021-12-25T12:43:29Z
2021-12-25T10:45:03Z,42.805,6.029,13.3032,4.60038,2470.474,2021-12-25T12:46:33Z
2021-12-25T10:48:06Z,42.805,6.029,13.3046,4.60033,2470.474,2021-12-25T12:49:36Z
2021-12-25T10:51:10Z,42.805,6.029,13.3018,4.60036,2470.511,2021-12-25T12:52:39Z
2021-12-25T10:54:13Z,42.805,6.029,13.3024,4.60047,2470.437,2021-12-25T12:55:42Z
2021-12-25T10:57:16Z,42.805,6.029,13.3015,4.60049,2470.483,2021-12-25T12:58:45Z
2021-12-25T11:00:19Z,42.805,6.029,13.3024,4.60049,2470.46,2021-12-25T13:01:48Z
2021-12-25T11:03:22Z,42.805,6.029,13.3035,4.60045,2470.474,2021-12-25T13:04:51Z
2021-12-25T11:06:25Z,42.805,6.029,13.3034,4.60042,2470.46,2021-12-25T13:07:54Z
2021-12-25T11:09:28Z,42.805,6.029,13.3018,4.60034,2470.45,2021-12-25T13:10:58Z
2021-12-25T11:12:31Z,42.805,6.029,13.3053,4.60036,2470.46,2021-12-25T13:14:01Z
2021-12-25T11:15:35Z,42.805,6.029,13.3020,4.60050,2470.474,2021-12-25T13:17:04Z
2021-12-25T11:18:38Z,42.805,6.029,13.3030,4.60029,2470.497,2021-12-25T13:20:07Z
2021-12-25T11:21:41Z,42.805,6.029,13.3029,4.60040,2470.46,2021-12-25T13:23:10Z
2021-12-25T11:24:44Z,42.805,6.029,13.3024,4.60041,2470.46,2021-12-25T13:26:13Z
2021-12-25T11:27:47Z,42.805,6.029,13.3024,4.60042,2470.474,2021-12-25T13:29:16Z
2021-12-25T11:30:50Z,42.805,6.029,13.3029,4.60042,2470.46,2021-12-25T13:32:19Z
2021-12-25T11:33:53Z,42.805,6.029,13.3013,4.60037,2470.46,2021-12-25T13:35:23Z
2021-12-25T11:36:56Z,42.805,6.029,13.3032,4.60040,2470.45,2021-12-25T13:38:26Z
2021-12-25T11:40:00Z,42.805,6.029,13.3020,4.60058,2470.474,2021-12-25T13:41:29Z
2021-12-25T11:43:03Z,42.805,6.029,13.3013,4.60036,2470.46,2021-12-25T13:44:32Z
2021-12-25T11:46:06Z,42.805,6.029,13.3026,4.60049,2470.474,2021-12-25T13:47:35Z
2021-12-25T11:49:09Z,42.805,6.029,13.3036,4.60033,2470.437,2021-12-25T13:50:38Z
2021-12-25T11:52:12Z,42.805,6.029,13.3026,4.60047,2470.437,2021-12-25T13:53:41Z
2021-12-25T11:55:15Z,42.805,6.029,13.3026,4.60046,2470.45,2021-12-25T13:56:45Z
2021-12-25T11:58:18Z,42.805,6.029,13.3022,4.60051,2470.45,2021-12-25T13:59:48Z
2021-12-25T12:01:21Z,42.805,6.029,13.3029,4.60038,2470.45,2021-12-25T14:02:51Z
2021-12-25T12:04:25Z,42.805,6.029,13.3021,4.60037,2470.46,2021-12-25T14:05:54Z
2021-12-25T12:07:28Z,42.805,6.029,13.3023,4.60049,2470.46,2021-12-25T14:08:57Z
2021-12-25T12:10:31Z,42.805,6.029,13.3024,4.60065,2470.46,2021-12-25T14:12:00Z
2021-12-25T12:13:34Z,42.805,6.029,13.3036,4.60041,2470.437,2021-12-25T14:15:03Z
2021-12-25T12:16:37Z,42.805,6.029,13.3034,4.60052,2470.497,2021-12-25T14:18:06Z
2021-12-25T12:19:40Z,42.805,6.029,13.3022,4.60049,2470.45,2021-12-25T14:21:10Z
2021-12-25T12:22:43Z,42.805,6.029,13.3036,4.60036,2470.45,2021-12-25T14:24:13Z
2021-12-25T12:25:47Z,42.805,6.029,13.3037,4.60046,2470.46,2021-12-25T14:27:16Z
2021-12-25T12:28:50Z,42.805,6.029,13.3021,4.60039,2470.474,2021-12-25T14:30:19Z
2021-12-25T12:31:53Z,42.805,6.029,13.3026,4.60041,2470.437,2021-12-25T14:33:22Z
2021-12-25T12:34:56Z,42.805,6.029,13.3031,4.60049,2470.437,2021-12-25T14:36:25Z
2021-12-25T12:37:59Z,42.805,6.029,13.3041,4.60039,2470.437,2021-12-25T14:39:28Z
2021-12-25T12:41:02Z,42.805,6.029,13.3029,4.60041,2470.437,2021-12-25T14:42:31Z
2021-12-25T12:44:05Z,42.805,6.029,13.3024,4.60052,2470.45,2021-12-25T14:45:35Z
2021-12-25T12:47:08Z,42.805,6.029,13.3021,4.60044,2470.437,2021-12-25T14:48:38Z
2021-12-25T12:50:12Z,42.805,6.029,13.3029,4.60054,2470.413,2021-12-25T14:51:41Z
2021-12-25T12:53:15Z,42.805,6.029,13.3017,4.60040,2470.404,2021-12-25T14:54:44Z
2021-12-25T12:56:18Z,42.805,6.029,13.3029,4.60045,2470.46,2021-12-25T14:57:47Z
2021-12-25T12:59:21Z,42.805,6.029,13.3026,4.60044,2470.46,2021-12-25T15:00:50Z
2021-12-25T13:02:24Z,42.805,6.029,13.3023,4.60049,2470.474,2021-12-25T15:03:53Z
2021-12-25T13:05:27Z,42.805,6.029,13.3026,4.60046,2470.437,2021-12-25T15:06:56Z
2021-12-25T13:08:30Z,42.805,6.029,13.3021,4.60052,2470.45,2021-12-25T15:10:00Z
2021-12-25T13:11:33Z,42.805,6.029,13.3046,4.60040,2470.413,2021-12-25T15:13:03Z
2021-12-25T13:14:37Z,42.805,6.029,13.3009,4.60064,2470.46,2021-12-25T15:16:06Z
2021-12-25T13:17:40Z,42.805,6.029,13.3041,4.60049,2470.413,2021-12-25T15:19:09Z
2021-12-25T13:20:43Z,42.805,6.029,13.3033,4.60056,2470.413,2021-12-25T15:22:12Z
2021-12-25T13:23:46Z,42.805,6.029,13.3029,4.60052,2470.413,2021-12-25T15:25:15Z
2021-12-25T13:26:49Z,42.805,6.029,13.3034,4.60056,2470.427,2021-12-25T15:28:18Z
2021-12-25T13:29:52Z,42.805,6.029,13.3040,4.60061,2470.45,2021-12-25T15:31:21Z
2021-12-25T13:32:55Z,42.805,6.029,13.3031,4.60053,2470.437,2021-12-25T15:34:25Z
2021-12-25T13:35:58Z,42.805,6.029,13.3026,4.60027,2470.413,2021-12-25T15:37:28Z
2021-12-25T13:39:02Z,42.805,6.029,13.3025,4.60035,2470.427,2021-12-25T15:40:31Z
2021-12-25T13:42:05Z,42.805,6.029,13.3029,4.60058,2470.427,2021-12-25T15:43:34Z
2021-12-25T13:45:08Z,42.805,6.029,13.3026,4.60051,2470.413,2021-12-25T15:46:37Z
2021-12-25T13:48:11Z,42.805,6.029,13.3032,4.60044,2470.413,2021-12-25T15:49:40Z
2021-12-25T13:51:14Z,42.805,6.029,13.3028,4.60042,2470.437,2021-12-25T15:52:43Z
2021-12-25T13:54:17Z,42.805,6.029,13.3035,4.60048,2470.427,2021-12-25T15:55:47Z
2021-12-25T13:57:20Z,42.805,6.029,13.3030,4.60052,2470.45,2021-12-25T15:58:50Z
2021-12-25T14:00:23Z,42.805,6.029,13.3031,4.60051,2470.39,2021-12-25T16:01:53Z
2021-12-25T14:03:27Z,42.805,6.029,13.3022,4.60044,2470.366,2021-12-25T16:04:56Z
2021-12-25T14:06:30Z,42.805,6.029,13.3055,4.60051,2470.413,2021-12-25T16:07:59Z
2021-12-25T14:09:33Z,42.805,6.029,13.3028,4.60046,2470.39,2021-12-25T16:11:02Z
2021-12-25T14:12:36Z,42.805,6.029,13.3021,4.60036,2470.39,2021-12-25T16:14:05Z
2021-12-25T14:15:39Z,42.805,6.029,13.3052,4.60041,2470.404,2021-12-25T16:17:08Z
2021-12-25T14:18:42Z,42.805,6.029,13.3030,4.60046,2470.39,2021-12-25T16:20:12Z
2021-12-25T14:21:45Z,42.805,6.029,13.3041,4.60043,2470.39,2021-12-25T16:23:15Z
2021-12-25T14:24:49Z,42.805,6.029,13.3034,4.60052,2470.427,2021-12-25T16:26:18Z
2021-12-25T14:27:52Z,42.805,6.029,13.3046,4.60059,2470.427,2021-12-25T16:29:21Z
2021-12-25T14:30:55Z,42.805,6.029,13.3028,4.60061,2470.404,2021-12-25T16:32:24Z
2021-12-25T14:33:58Z,42.805,6.029,13.3039,4.60049,2470.39,2021-12-25T16:35:27Z
2021-12-25T14:37:01Z,42.805,6.029,13.3039,4.60044,2470.427,2021-12-25T16:38:30Z
2021-12-25T14:40:04Z,42.805,6.029,13.3051,4.60049,2470.404,2021-12-25T16:41:33Z
2021-12-25T14:43:07Z,42.805,6.029,13.3028,4.60059,2470.366,2021-12-25T16:44:37Z
2021-12-25T14:46:10Z,42.805,6.029,13.3054,4.60060,2470.39,2021-12-25T16:47:40Z
2021-12-25T14:49:14Z,42.805,6.029,13.3046,4.60051,2470.39,2021-12-25T16:50:43Z
2021-12-25T14:52:17Z,42.805,6.029,13.3046,4.60038,2470.366,2021-12-25T16:53:46Z
2021-12-25T14:55:20Z,42.805,6.029,13.3032,4.60047,2470.404,2021-12-25T16:56:49Z
2021-12-25T14:58:23Z,42.805,6.029,13.3029,4.60049,2470.38,2021-12-25T16:59:52Z
2021-12-25T15:01:26Z,42.805,6.029,13.3040,4.60064,2470.366,2021-12-25T17:02:55Z